Location: Buffign�court
(47.8126°N, 6.0176°E)
Time: 19:52:57
(UTC+00:00)

Terra - Pass Details

Date: 16 June 2021
Orbit: 701 x 703 km, 98.2° (Epoch: 02 August)

Event Time Altitude Azimuth Distance (km) Brightness Sun altitude
Exits shadow 22:44:45 10° 228° (SW) 2,168 4.1 -17.9°
Maximum altitude 22:47:53 17° 270° (W) 1,726 4.0 -18.0°
Drops below altitude 10° 22:51:02 10° 312° (NW) 2,180 5.1 -18.1°
Sets 22:54:03 0° 332° (NNW) 3,105 6.5 -18.2°
